RH
15 13 11 10 9 8 8 8 8 9 9 9 9 9 9 9 9 8 7 9 11 11 11 10 10 10 9 9 9 10 11 11 12 13 14 16 17 17 17 17 18 19 19 19 18 19 19 18 17 18 20 23 31 45 54 52 53 65 85 96 98 101 100 90 78 70 69 72 73 75 73 70 71 71 69 70 78 84 83 83 83 82 83 90 97
19 18 16 13 11 10 10 9 10 10 11 10 9 9 9 9 10 9 9 10 14 17 17 16 15 15 15 15 14 15 15 15 15 16 16 18 19 19 20 20 20 19 19 17 17 16 16 15 15 14 19 23 28 39 51 57 60 68 83 94 95 95 96 92 83 76 74 75 75 76 75 72 72 72 69 64 65 70 76 78 79 79 78 78 84
21 21 21 19 16 13 12 12 12 13 13 13 12 11 10 9 10 10 9 9 12 17 20 22 22 22 22 21 20 19 19 19 18 18 19 19 19 20 20 20 19 18 17 15 15 15 15 14 14 13 15 20 25 32 41 49 54 59 69 79 80 76 76 79 79 77 75 73 71 72 72 70 68 67 64 57 53 55 60 64 66 67 69 69 69
22 23 23 23 22 19 16 14 14 15 16 16 16 15 14 12 10 10 9 9 9 11 14 18 20 21 22 21 20 20 19 18 17 17 18 19 19 19 19 19 19 17 16 16 16 16 16 15 16 15 15 16 20 25 30 35 38 40 46 51 52 48 46 47 51 54 55 55 55 56 57 57 57 56 55 51 47 44 45 49 52 53 55 58 58
24 24 24 25 25 25 23 19 17 16 17 18 19 19 18 16 14 11 9 9 8 8 8 9 11 12 12 12 13 13 13 14 17 19 21 22 21 21 20 19 18 18 18 18 16 14 14 14 13 14 15 15 15 17 20 22 24 25 27 29 30 30 29 28 28 29 29 30 31 33 34 36 38 39 41 42 41 39 38 39 42 45 46 46 48
24 25 25 26 26 27 27 26 23 20 18 18 19 20 21 21 19 16 12 9 8 8 8 8 8 9 9 11 12 15 18 21 25 27 28 26 25 23 22 21 21 21 19 14 11 8 7 8 7 7 7 8 8 9 9 10 10 11 12 13 14 15 15 16 16 16 17 17 18 19 20 22 24 25 27 29 31 32 33 33 34 37 38 39 40
24 26 26 26 27 28 28 29 28 27 24 22 20 20 21 22 22 21 18 14 11 9 8 8 8 8 9 11 13 16 20 23 25 26 26 25 25 24 23 23 20 17 12 7 5 5 4 4 5 5 5 5 5 6 6 6 6 6 6 6 6 6 6 6 6 6 7 7 8 9 10 12 13 14 16 18 20 21 23 24 24 25 28 31 33
27 27 26 26 27 28 29 29 30 30 29 29 26 24 23 22 23 24 23 21 18 14 11 9 9 8 8 8 10 11 12 14 15 16 17 17 18 18 17 16 12 8 6 4 4 4 5 5 6 7 7 8 8 8 8 9 9 9 8 8 7 7 7 6 6 6 5 5 5 4 5 5 6 6 7 9 11 12 14 15 16 17 19 23 25
31 29 27 27 27 27 28 29 29 30 30 32 32 30 28 26 24 24 25 26 25 22 18 14 12 11 10 10 9 9 9 9 9 10 10 11 11 11 10 8 6 5 4 4 4 5 7 8 9 9 9 9 9 9 9 10 11 11 11 10 9 9 8 8 8 7 7 7 6 6 5 5 4 4 4 5 5 6 7 9 10 11 13 15 17
32 30 28 28 28 28 28 28 29 30 30 32 34 35 34 31 28 27 26 26 28 28 25 22 18 16 15 14 13 12 11 10 10 9 9 8 7 7 6 5 4 4 4 5 6 7 9 9 10 10 10 9 8 8 8 10 11 12 12 11 10 10 11 10 9 9 8 8 7 7 6 6 6 5 5 5 5 4 5 5 6 7 7 8 10
36 33 31 30 30 31 30 29 30 30 31 32 35 38 38 35 32 30 29 28 28 30 30 28 24 21 19 17 15 13 10 9 8 7 6 6 5 5 4 4 4 4 5 5 6 7 8 9 9 9 9 9 8 8 9 11 13 14 14 13 13 13 14 12 11 9 8 8 7 7 7 6 6 6 6 6 5 5 5 5 5 5 5 5 5
42 39 36 34 35 37 36 34 32 32 33 33 35 39 42 40 36 32 32 31 30 31 32 30 26 22 19 17 13 9 7 6 5 5 5 5 5 5 4 4 5 5 5 5 6 7 8 8 8 8 8 9 8 10 12 15 16 17 16 15 15 16 16 15 12 10 9 8 8 7 7 7 6 6 6 6 6 5 5 5 5 5 5 4 4
45 45 41 41 43 45 44 41 38 36 36 36 37 40 44 45 40 34 32 33 33 32 33 31 27 21 17 13 9 6 5 5 5 5 5 5 5 5 5 4 5 6 6 6 6 7 7 8 8 8 8 8 10 13 15 17 17 18 17 17 18 18 17 15 12 10 9 8 8 8 8 8 8 7 7 6 6 6 5 5 5 4 5 4 5
45 48 48 48 49 51 51 47 44 41 40 40 41 42 46 49 44 37 33 34 35 35 34 32 27 20 13 8 6 5 5 5 5 5 5 5 5 5 5 5 5 6 6 6 6 7 7 8 7 8 9 11 15 16 17 16 16 17 17 18 19 18 16 13 11 10 9 9 10 10 10 10 9 9 8 8 7 7 6 6 6 5 5 4 4
46 50 51 52 54 56 54 51 48 46 45 45 46 46 48 50 46 39 35 35 36 37 35 33 26 17 10 6 5 5 5 5 6 6 6 5 5 5 5 5 5 6 6 6 6 7 7 7 8 11 14 18 20 19 17 16 15 17 18 19 19 16 14 12 11 10 10 11 11 11 11 10 9 9 9 9 9 8 8 7 7 7 6 6 5
47 51 54 56 58 58 56 54 51 50 48 48 50 51 50 50 46 41 37 36 38 38 36 32 24 13 7 5 5 5 6 6 6 6 6 6 5 5 5 5 6 6 6 6 7 8 9 11 14 17 19 20 19 17 16 16 17 19 20 19 18 16 13 12 11 11 12 12 12 12 11 11 11 11 10 10 9 9 8 8 8 8 7 7 7
48 53 56 57 59 58 57 56 53 51 50 50 52 52 51 49 46 42 39 38 39 39 37 30 20 10 5 6 6 6 6 7 7 7 7 6 6 6 6 6 6 7 8 10 12 15 17 19 21 21 21 19 17 16 16 17 19 21 21 20 18 15 13 12 12 12 12 12 12 12 12 12 12 11 11 10 10 9 9 8 8 8 8 7 7
49 53 54 54 56 55 56 56 54 51 50 49 51 52 50 49 47 44 41 40 40 39 36 27 15 7 5 6 6 6 7 7 8 8 8 9 9 9 10 11 12 14 17 19 20 22 23 23 24 23 22 19 17 16 16 18 21 22 22 21 19 16 14 13 13 12 12 12 12 12 12 12 12 12 11 11 10 10 9 9 9 8 8 8 8
48 50 49 49 50 51 53 55 52 49 48 47 49 50 50 49 48 46 43 42 41 39 32 21 10 6 6 7 6 7 8 8 9 11 12 13 14 15 17 18 20 21 22 22 22 23 23 24 25 25 23 20 18 18 19 20 22 23 23 22 21 18 14 12 12 12 12 12 12 12 12 12 12 12 11 11 10 9 9 9 9 9 8 8 8
45 46 47 48 48 49 51 51 50 47 45 46 47 48 49 50 48 47 45 42 40 36 27 14 7 6 7 7 7 8 9 10 12 13 14 16 18 19 20 21 21 22 22 21 22 22 23 25 26 26 25 23 21 20 21 22 24 25 24 23 23 21 17 14 13 13 13 14 13 13 12 12 12 12 11 10 9 9 9 8 8 8 8 8 8
43 44 46 47 47 48 48 48 48 46 44 45 46 46 47 48 48 48 46 42 38 31 19 8 5 7 7 8 9 9 10 11 13 14 16 17 18 19 20 20 20 20 20 21 21 22 24 26 28 28 27 25 24 23 23 24 26 27 26 25 25 24 20 16 14 14 15 15 15 14 13 13 12 11 10 10 9 8 8 9 8 8 8 8 8
40 41 43 45 45 47 47 47 47 46 45 45 46 45 46 46 46 46 44 40 34 23 11 6 6 8 8 9 10 10 11 12 13 14 16 17 18 18 18 19 19 19 19 20 20 22 24 27 29 30 29 27 27 26 25 26 27 29 29 27 27 27 24 20 16 15 15 16 15 15 14 13 12 11 10 9 9 9 8 8 8 8 8 8 8
36 37 39 41 42 42 44 46 46 46 45 44 43 44 43 42 42 42 39 35 26 15 7 6 7 8 9 9 10 11 12 13 14 15 16 16 16 17 17 17 18 18 18 19 20 22 25 28 30 30 30 29 29 28 28 29 30 31 31 30 28 28 27 23 18 16 15 15 15 15 14 13 12 11 11 10 9 9 9 8 8 8 8 8 9
33 33 34 36 38 38 39 42 43 43 43 42 41 40 39 38 37 36 32 26 18 10 6 6 8 9 9 10 11 12 13 14 14 14 15 15 15 16 16 16 17 17 18 19 21 24 28 30 32 31 30 30 30 31 32 33 33 34 34 33 31 30 28 25 21 17 15 15 15 15 14 14 13 12 12 11 10 10 9 9 9 8 8 8 9
28 29 30 31 33 34 35 36 39 40 39 38 37 35 33 32 31 28 24 18 11 7 6 6 8 9 10 11 11 12 13 13 14 14 14 14 15 15 15 15 16 16 18 20 23 27 31 33 33 32 31 31 31 33 35 36 37 37 36 36 33 31 30 28 24 20 17 15 15 15 15 15 15 14 13 12 12 11 10 9 9 8 8 8 8
24 25 28 28 28 30 32 33 34 35 35 35 34 32 30 27 24 22 17 11 7 5 5 7 8 9 10 11 11 12 13 13 13 14 14 13 13 13 14 15 16 17 19 22 25 30 33 36 36 34 33 33 33 35 37 39 40 40 39 38 37 34 33 30 27 24 21 18 17 17 17 17 16 15 15 13 13 12 11 10 9 9 9 9 9
21 23 25 25 25 25 27 29 30 30 29 29 29 28 26 25 22 18 14 9 7 5 5 6 8 8 9 10 11 11 12 12 12 12 12 12 12 12 13 15 17 19 22 25 28 32 35 37 38 37 37 37 36 37 39 41 43 43 42 42 41 38 35 33 30 28 24 21 19 18 18 18 17 17 16 14 14 13 11 11 10 9 10 10 10
22 22 23 24 24 22 23 25 27 26 25 25 24 23 22 21 20 16 12 9 7 6 6 6 7 8 8 9 10 10 10 10 10 10 10 11 12 13 14 16 18 21 25 29 32 35 37 39 40 41 41 41 41 42 43 45 46 46 45 45 44 42 39 36 34 32 28 24 21 19 19 19 19 18 17 16 15 14 12 11 10 10 10 11 11
24 22 23 24 22 20 20 22 23 22 22 22 21 20 18 18 17 15 11 8 6 6 6 6 6 7 7 7 8 8 9 9 9 10 10 11 12 14 15 17 21 25 30 33 36 37 39 40 42 44 45 46 46 47 48 50 51 51 50 49 47 45 42 39 37 34 31 27 24 22 21 21 20 20 19 17 16 14 13 12 11 10 10 11 12
29 24 22 22 21 19 18 19 19 19 19 19 19 19 17 16 15 13 11 8 7 6 6 6 6 7 7 8 8 8 9 9 10 10 11 12 13 14 16 20 25 29 32 35 38 40 42 44 46 48 50 51 52 53 54 55 56 55 53 52 50 49 46 42 39 36 34 31 28 26 24 24 23 22 20 18 17 15 14 13 12 11 11 11 12
37 31 24 22 21 20 19 19 18 18 17 16 17 17 17 15 14 13 11 9 7 6 6 7 7 7 7 8 8 9 9 10 10 11 12 12 13 15 20 24 29 32 35 38 42 45 47 49 50 52 54 55 56 57 58 58 57 57 55 54 53 52 50 46 41 39 37 34 31 29 28 27 26 24 22 20 18 17 16 15 15 14 13 12 12
47 40 32 25 21 20 20 21 20 18 16 16 16 16 16 15 15 14 14 13 11 9 8 7 7 7 8 8 9 10 10 11 11 11 11 12 14 19 24 29 31 34 38 42 47 51 53 55 56 57 58 59 59 59 58 58 57 57 57 56 56 57 54 50 45 42 41 38 35 33 31 30 28 26 24 22 20 19 19 18 18 17 16 14 13
57 49 41 31 25 23 22 22 22 21 18 17 16 17 18 17 16 15 16 16 16 14 13 11 10 9 9 9 9 10 10 10 11 11 11 14 19 24 28 31 33 37 43 48 54 58 60 61 62 62 62 62 62 61 60 60 59 59 58 58 59 60 58 53 49 46 45 42 39 37 34 33 31 29 26 25 23 22 21 21 20 20 18 17 15
70 62 52 40 29 25 24 23 24 23 21 19 18 19 20 19 18 17 17 19 19 19 18 17 16 15 14 13 12 11 12 12 12 13 16 20 25 28 30 32 36 42 48 55 61 65 67 68 68 68 67 66 66 65 65 63 61 60 60 60 62 64 62 57 53 52 50 47 43 40 38 36 34 32 29 27 25 24 24 24 23 22 20 19 18
81 75 68 57 46 37 29 25 23 23 23 22 21 21 20 20 20 21 21 21 22 22 22 22 22 22 21 20 19 18 18 19 20 21 23 26 29 30 31 35 40 46 54 61 67 71 73 74 73 72 71 70 70 70 69 66 63 62 62 63 65 67 65 62 59 58 55 51 47 44 41 39 37 34 32 29 27 27 27 26 26 25 23 21 20
86 83 80 76 66 52 38 28 25 25 25 24 24 22 21 21 23 24 25 24 23 23 22 23 25 26 27 27 26 24 24 26 27 27 28 29 31 32 34 38 44 51 58 65 70 75 77 78 78 76 74 73 73 72 70 67 65 64 64 65 67 69 69 66 64 62 59 55 51 48 44 42 39 37 35 32 30 29 29 29 28 27 25 23 22
84 83 81 80 76 66 53 40 33 29 26 24 25 24 23 23 23 24 26 27 26 24 23 23 25 28 29 28 26 25 27 29 30 30 30 32 33 33 36 41 48 55 62 67 71 75 79 81 82 81 78 75 73 72 70 68 67 66 65 66 68 70 70 68 65 63 60 57 54 51 48 45 42 40 38 35 33 32 32 31 30 28 27 26 25
92 90 88 88 88 81 68 53 44 40 35 28 26 25 24 23 24 24 25 27 27 26 25 25 25 27 28 26 24 25 29 32 32 31 32 34 36 37 40 45 52 59 64 69 73 77 80 84 86 84 80 76 72 70 70 69 68 67 66 67 68 69 68 66 64 61 60 58 57 54 51 48 45 43 41 39 37 35 34 32 31 30 29 28 28
99 96 94 94 92 85 73 63 62 63 55 40 30 28 28 28 27 26 26 26 26 27 26 26 26 28 28 25 23 25 30 34 34 35 36 39 40 41 44 50 57 63 68 73 78 79 81 85 88 87 82 76 71 70 70 70 68 66 65 66 67 67 66 64 62 60 59 59 58 57 54 51 48 46 44 42 40 38 36 33 32 31 30 30 30
95 91 89 88 86 83 79 74 71 71 66 56 45 38 34 32 32 32 30 29 29 29 28 28 30 30 28 24 24 28 33 36 37 39 43 45 47 48 51 57 63 68 73 79 83 81 80 85 90 89 83 76 71 69 70 70 68 66 65 66 67 68 66 64 61 58 58 58 59 58 57 55 52 50 49 47 44 41 38 35 33 33 32 32 32
92 90 88 88 89 91 91 87 78 72 74 79 75 62 47 38 35 35 35 34 34 33 32 33 34 32 29 28 29 32 36 39 42 46 50 53 54 57 61 66 71 75 81 87 88 83 81 86 91 89 83 76 72 70 71 70 67 64 63 64 66 69 69 67 63 59 58 57 58 59 59 57 56 54 53 51 48 43 40 38 36 35 35 35 35
92 94 92 93 98 101 100 95 88 79 76 79 78 70 58 49 43 40 38 37 36 36 36 36 37 36 35 36 37 39 43 47 50 54 57 61 65 70 74 78 82 86 90 92 90 85 85 89 92 90 84 78 74 72 71 69 66 63 61 61 63 67 70 70 67 63 60 58 59 60 61 61 60 58 57 55 51 47 43 41 39 38 38 38 38
93 97 96 94 97 100 100 98 93 83 73 66 64 65 62 53 44 41 40 39 38 39 41 43 44 43 43 43 44 48 53 56 59 63 66 71 76 82 86 88 89 90 91 90 88 87 90 94 95 92 86 81 77 75 73 70 68 66 64 63 62 64 67 70 69 67 64 61 60 61 63 63 63 61 60 58 55 50 47 44 42 40 40 40 40
89 96 99 97 96 97 99 99 95 87 75 65 65 75 79 68 52 43 41 41 42 44 46 49 50 49 49 50 52 56 61 66 70 74 77 81 85 90 91 89 87 86 87 88 88 91 95 99 98 95 90 85 80 77 75 74 73 71 69 67 65 63 64 67 68 68 66 63 62 62 63 64 64 63 62 61 58 54 50 47 44 43 42 42 42
76 86 93 96 94 94 98 101 100 96 86 75 74 87 97 90 73 56 45 42 44 47 50 52 53 53 54 55 57 61 68 74 78 82 86 89 90 90 87 84 82 83 86 88 89 93 98 101 100 98 93 88 83 80 79 79 78 76 74 71 67 63 62 63 66 67 66 64 63 63 64 65 65 65 64 62 60 58 54 50 47 45 44 43 44
59 72 84 91 90 88 91 96 100 100 96 89 87 93 95 87 75 63 52 47 47 48 50 53 55 56 58 60 62 66 73 79 85 91 93 93 91 89 88 88 88 87 87 87 89 93 97 99 100 100 96 91 87 85 84 84 84 82 79 74 69 64 61 62 65 67 67 66 65 65 66 67 67 66 64 62 60 59 56 52 49 47 46 46 47
41 55 73 87 91 87 86 88 90 90 87 85 86 84 76 66 62 59 55 50 49 51 55 58 59 60 62 63 66 70 77 84 91 94 93 92 93 96 97 96 92 86 82 84 89 93 96 99 101 101 99 95 91 88 88 91 92 90 84 77 71 66 63 63 66 68 69 68 68 69 70 70 69 67 65 63 60 57 55 52 50 48 48 49 49
45 55 70 86 94 93 87 83 82 83 85 87 86 80 72 68 68 69 68 67 69 75 81 80 73 66 65 68 73 79 84 86 89 91 93 95 97 97 96 93 88 83 82 84 89 93 95 98 101 102 100 98 95 92 93 97 98 94 87 81 75 70 67 67 69 71 71 71 73 74 73 72 70 68 66 64 60 57 54 52 50 49 50 51 50
55 65 76 87 95 98 95 87 81 83 90 96 96 92 90 91 92 92 92 92 93 97 101 96 84 74 73 77 82 85 85 85 89 94 99 100 98 95 94 95 92 88 85 85 88 91 93 95 98 101 100 99 98 97 98 101 101 96 91 85 80 75 72 71 72 73 74 76 78 79 76 74 72 70 68 65 62 57 54 53 51 51 52 53 51
41 49 59 70 82 94 100 96 87 83 88 97 101 99 99 101 101 100 100 100 101 102 102 96 87 83 84 85 86 87 88 91 96 100 100 97 93 92 94 96 96 94 90 87 87 89 90 90 94 98 100 99 99 99 99 100 100 98 95 91 86 81 77 76 75 76 78 82 83 82 78 76 73 71 69 67 64 59 56 54 53 54 54 54 52
33 36 42 51 64 79 92 98 96 89 87 92 99 101 100 100 101 100 100 102 103 102 97 90 85 86 89 89 90 93 96 99 102 102 100 98 97 97 98 100 101 100 96 90 86 87 90 91 94 97 100 101 100 98 97 98 99 99 98 96 92 87 83 81 80 80 82 85 86 84 81 78 75 72 70 68 66 62 58 56 55 56 56 55 55
Wind_Speed
11 11 11 11 11 12 12 12 12 12 13 14 15 16 16 17 17 16 15 14 14 14 14 15 16 16 17 18 18 19 19 20 21 22 22 22 21 21 22 23 22 22 22 22 22 22 23 23 23 23 23 23 23 22 22 23 24 26 28 30 30 28 26 24 24 25 27 28 29 30 30 30 29 29 29 31 32 32 32 32 31 30 29 26 26
11 11 11 11 11 12 12 11 11 11 11 13 14 14 15 15 16 15 14 13 12 11 11 12 13 13 14 14 15 16 17 18 18 19 20 20 20 21 21 22 22 22 22 21 20 19 20 21 21 21 21 21 20 20 20 21 22 25 28 29 29 29 27 25 25 26 26 26 27 28 29 29 29 28 28 29 30 32 32 31 29 28 28 28 26
12 12 12 11 11 12 12 12 11 11 11 12 12 13 13 13 14 14 13 12 11 11 11 11 12 12 12 13 14 15 15 16 17 19 19 20 20 20 20 20 20 19 18 17 16 15 16 17 19 19 19 19 18 18 18 18 19 22 25 26 27 27 27 27 26 26 26 26 27 28 28 29 29 29 29 29 30 31 32 32 32 30 29 29 29
14 13 13 12 12 12 13 13 12 11 11 11 12 12 12 12 13 13 12 11 10 9 9 10 11 11 12 12 13 14 14 15 15 15 15 15 15 15 15 15 14 14 13 12 11 11 12 13 14 15 16 16 16 16 16 16 16 18 20 22 23 24 25 26 26 25 25 26 26 28 29 29 30 30 31 31 31 32 32 33 33 32 31 31 31
15 15 14 13 13 13 13 14 13 12 12 11 11 11 11 11 11 12 11 10 8 8 7 7 8 9 9 10 10 10 10 10 9 9 9 10 10 10 10 10 10 9 9 8 7 7 6 7 8 9 10 10 9 9 9 9 9 10 12 14 16 18 20 21 22 22 23 24 25 26 28 29 29 30 31 32 33 33 33 34 34 33 33 33 32
17 16 15 14 14 14 14 14 14 13 13 12 11 11 11 10 10 10 11 10 8 7 6 5 5 5 5 5 5 5 5 5 5 6 6 7 7 8 7 7 6 6 5 4 4 5 7 9 10 11 12 12 12 11 10 9 8 7 6 6 6 7 8 10 11 13 14 16 18 20 23 25 27 28 29 30 32 34 34 34 35 35 34 34 34
18 18 17 15 15 15 14 14 15 14 13 13 12 11 11 10 10 9 9 9 8 7 6 5 4 4 3 3 3 3 3 4 4 5 5 6 6 6 5 5 4 3 3 4 6 7 9 10 11 11 12 12 12 13 12 12 12 11 10 10 9 8 8 7 7 8 8 8 10 11 14 16 19 20 22 24 27 30 33 34 35 35 35 36 37
19 19 18 17 16 15 15 15 15 14 14 13 13 12 11 11 10 9 8 8 7 6 5 4 4 3 3 3 2 2 2 2 2 3 3 3 3 3 3 3 3 3 4 5 7 8 8 9 9 10 11 11 12 13 13 13 13 13 12 12 11 11 11 10 10 10 10 10 10 10 11 12 13 14 16 18 20 22 25 28 31 33 35 36 37
19 19 18 17 17 16 16 15 15 15 14 13 13 12 12 11 11 10 9 8 7 6 5 4 3 3 2 2 2 2 2 2 2 2 1 1 1 2 2 3 4 4 5 6 6 6 7 7 8 9 10 10 11 12 12 13 13 13 13 13 13 13 13 13 12 12 12 12 12 12 12 13 13 14 15 16 17 18 19 22 24 27 30 33 33
18 18 18 17 17 17 16 15 15 15 14 13 13 12 12 12 11 11 10 9 8 6 5 4 4 3 2 2 1 1 2 2 3 3 3 3 3 3 3 4 4 5 5 5 5 5 5 6 7 8 9 10 11 12 13 13 14 14 14 14 14 15 15 15 15 15 14 14 14 14 14 15 15 16 16 17 17 18 18 19 21 23 25 28 30
17 17 17 16 16 16 15 15 15 15 14 13 12 12 12 12 12 11 10 9 8 7 6 5 4 3 3 2 1 0 1 2 3 3 3 3 3 3 3 3 4 5 5 3 3 3 3 5 6 8 9 10 11 12 14 15 15 15 15 15 15 17 18 18 18 17 16 15 15 15 16 16 17 18 19 19 20 20 20 20 21 22 23 26 28
16 16 15 15 15 15 15 15 14 14 14 13 12 11 11 11 11 11 10 9 8 7 7 6 5 4 3 2 1 1 2 3 3 3 3 2 2 2 2 2 4 4 2 1 2 2 4 5 7 8 10 11 12 13 14 15 15 15 15 15 16 18 19 20 19 18 17 16 16 16 16 17 18 19 21 22 22 23 24 24 24 24 25 25 27
16 15 14 15 15 15 15 15 14 14 14 13 12 11 11 11 11 10 10 9 8 8 7 6 5 4 3 2 2 2 2 3 3 3 2 2 2 2 2 3 4 3 1 1 2 4 5 7 9 10 11 12 13 14 15 15 15 15 15 15 17 18 19 19 18 17 16 16 16 16 16 17 18 19 21 22 24 25 27 28 28 29 29 29 29
15 14 14 14 15 14 14 15 15 15 14 12 11 11 10 10 10 10 9 9 8 8 7 6 5 4 3 2 2 2 2 2 2 2 2 1 1 2 2 3 4 3 4 5 6 7 9 10 11 12 12 13 14 15 15 15 15 15 16 16 18 19 19 18 16 15 15 15 16 17 17 18 19 20 21 22 23 25 26 28 30 31 32 32 32
14 13 13 13 14 14 14 15 15 15 14 12 11 11 10 9 9 9 9 8 8 7 7 6 5 4 3 3 3 2 2 2 1 1 1 0 1 2 2 3 4 5 7 8 9 11 12 13 13 14 15 16 17 17 16 16 15 16 17 18 19 19 17 16 15 15 15 16 17 18 18 19 20 21 22 23 24 24 25 27 28 30 31 33 34
13 12 12 12 13 13 14 15 15 15 14 11 10 10 9 9 9 9 8 8 8 7 7 6 5 4 4 3 2 2 1 1 0 0 1 1 1 2 3 4 6 7 9 10 11 13 14 15 16 17 18 18 18 18 17 16 16 17 18 19 19 18 17 16 15 16 16 17 18 18 18 19 21 22 23 24 24 25 25 26 27 28 29 31 33
12 11 11 12 12 13 13 15 15 15 13 10 9 8 8 8 8 8 8 8 8 7 7 7 6 5 4 3 2 2 1 1 1 1 1 2 2 3 5 6 7 8 9 11 12 14 15 17 18 19 19 19 19 18 18 17 17 18 19 19 19 18 17 16 16 16 17 17 18 19 20 21 22 23 24 24 24 25 25 26 27 28 29 30 32
11 11 11 12 12 12 13 14 14 13 12 9 8 8 8 8 8 8 8 8 8 8 8 7 6 6 4 3 3 2 2 2 2 2 2 3 3 4 6 7 8 9 11 12 13 15 16 18 19 20 20 20 19 19 18 18 18 19 19 20 21 20 19 17 17 17 17 18 19 20 21 22 23 24 25 25 25 26 26 27 28 29 30 31 32
11 11 11 11 12 12 12 13 13 12 10 8 7 7 7 8 8 7 8 8 8 8 8 8 7 6 5 4 4 3 3 3 3 3 3 4 5 6 7 8 9 11 12 13 15 16 18 19 20 21 21 20 20 19 19 20 20 20 20 21 22 22 21 20 19 19 19 20 21 22 23 24 25 25 26 26 26 27 27 28 29 30 31 32 32
11 10 10 11 11 11 11 11 11 10 9 7 7 7 7 7 8 7 8 8 9 9 9 8 8 7 6 5 5 5 4 4 4 4 5 6 7 8 9 9 10 12 14 15 17 18 19 21 21 22 21 21 21 20 20 21 21 21 21 22 23 24 24 23 22 22 22 23 23 24 25 25 26 27 27 27 27 27 28 29 30 31 32 33 34
12 11 10 10 11 10 10 10 11 10 9 7 7 7 7 7 8 8 8 8 9 9 10 9 9 8 7 7 6 6 6 6 6 6 7 8 9 10 11 12 13 15 16 18 19 20 21 22 22 22 22 21 21 21 21 21 22 22 21 22 23 24 25 24 23 23 23 24 24 25 26 27 27 28 28 28 28 29 29 30 31 32 33 34 35
13 12 11 10 10 10 10 10 11 10 9 8 8 7 7 7 7 8 8 9 10 10 11 11 10 9 9 8 8 7 7 8 8 9 10 11 11 12 13 15 16 17 18 19 20 21 22 23 23 22 22 22 21 21 22 22 22 22 22 22 23 25 25 25 24 23 23 24 24 25 26 27 28 29 29 29 30 31 31 32 33 34 34 35 37
14 13 12 10 10 10 10 10 10 10 9 9 8 7 7 7 8 8 9 10 11 12 12 12 12 11 10 10 9 9 10 10 11 12 12 13 13 14 16 17 18 19 20 21 21 22 23 23 23 23 23 22 22 22 22 23 23 23 23 23 23 25 25 25 25 24 24 24 25 26 27 28 29 30 30 31 32 33 34 35 36 36 36 37 38
14 14 12 11 10 9 9 10 10 10 9 8 8 8 8 8 9 9 10 11 12 13 14 13 13 13 12 11 11 12 12 12 13 13 14 15 16 17 18 19 20 21 21 21 22 23 23 23 23 23 23 23 23 23 23 23 24 24 24 24 24 25 26 26 26 25 25 25 25 26 27 28 29 30 31 32 34 35 36 37 37 38 38 38 39
15 15 13 12 11 10 10 10 10 10 10 9 8 9 9 10 10 10 11 12 13 14 15 15 15 14 14 14 14 14 14 15 15 15 16 17 18 18 20 20 21 21 21 22 22 23 23 23 23 23 23 23 23 24 24 24 24 25 25 25 25 26 27 27 27 27 26 26 26 26 27 28 30 31 32 33 34 35 36 37 38 39 40 40 40
15 15 15 14 12 11 10 10 11 11 11 10 10 10 11 11 12 12 13 13 14 15 16 16 16 16 16 16 16 16 16 17 17 17 18 19 19 20 21 21 21 22 22 23 23 23 23 23 23 23 23 24 24 24 25 25 25 25 25 25 26 26 27 28 28 28 28 27 27 27 28 28 30 31 32 33 34 35 37 38 39 40 41 41 42
16 16 16 15 13 12 12 12 12 12 12 12 12 12 12 13 13 14 14 15 15 16 16 17 17 17 17 18 18 18 18 18 19 19 20 20 20 21 21 22 22 22 23 23 24 24 24 24 24 24 24 24 25 25 25 26 26 26 26 26 26 27 27 28 29 29 29 28 28 28 28 29 30 31 32 33 34 35 37 38 39 40 41 42 43
17 16 16 16 15 14 13 13 13 14 13 13 13 14 14 14 15 15 15 16 16 17 17 18 18 19 19 19 19 20 20 20 20 21 21 21 21 21 22 23 23 24 24 24 24 24 24 24 24 24 24 25 25 25 26 26 27 27 27 27 26 27 27 28 29 29 29 29 29 28 29 29 30 31 32 33 34 35 36 38 39 40 41 41 42
19 18 17 17 17 16 15 15 15 15 15 15 15 16 16 16 16 17 17 17 17 18 18 19 19 20 20 20 21 21 21 21 21 21 22 22 22 23 23 24 25 25 25 24 24 24 24 24 24 24 24 25 25 26 26 27 27 27 28 27 27 27 27 28 29 30 30 30 30 29 29 30 31 31 32 33 34 35 36 37 38 39 40 41 42
20 20 19 19 19 18 17 16 16 17 16 16 17 17 17 18 18 18 18 19 19 19 20 20 20 21 21 21 21 22 22 22 22 22 23 23 23 24 25 25 25 25 25 25 24 24 24 24 24 25 25 25 25 25 26 27 27 27 28 28 28 28 28 28 30 30 30 30 30 30 30 30 31 31 32 32 33 34 35 36 38 39 40 41 42
21 21 21 21 21 20 19 18 18 18 18 18 18 19 19 19 19 19 20 20 21 21 22 22 22 22 23 23 23 23 23 24 24 24 24 25 25 25 25 25 26 26 25 25 25 25 24 25 25 25 25 25 25 25 26 26 27 27 28 28 28 28 28 29 30 30 30 31 31 30 30 30 30 31 32 32 33 34 35 36 38 39 40 41 42
23 23 22 23 23 23 22 21 21 21 20 20 20 21 21 21 21 21 22 22 23 23 24 24 24 24 25 25 25 25 25 25 26 26 26 26 26 26 26 26 26 26 25 26 26 25 25 25 25 25 25 26 26 26 26 27 27 28 28 28 28 27 28 29 30 31 31 31 31 31 30 30 30 31 31 32 33 34 36 37 38 39 40 41 41
25 24 23 23 24 24 24 24 24 23 23 23 22 22 23 23 24 24 24 23 24 25 25 26 26 26 26 26 27 27 27 27 28 28 28 28 27 27 26 26 26 25 25 26 26 26 26 26 26 26 26 26 26 26 27 27 27 28 28 28 28 27 28 29 30 31 31 31 31 31 30 30 30 31 31 32 33 35 36 38 39 39 40 41 41
25 24 24 24 24 24 25 26 26 26 26 25 25 25 25 25 26 26 25 25 25 26 26 26 26 27 27 28 28 29 29 29 29 29 29 28 28 28 27 27 26 25 25 25 26 26 26 26 26 26 26 26 26 27 27 27 28 28 28 28 28 27 28 29 31 31 32 32 31 31 31 31 31 31 31 32 33 35 36 37 38 39 40 40 41
26 25 24 24 24 25 26 27 27 28 28 28 28 27 27 27 27 27 27 27 27 27 27 27 27 27 27 28 29 29 29 29 29 29 29 29 29 29 28 27 26 25 25 26 26 27 27 27 27 27 27 27 27 27 27 28 28 28 28 28 28 28 28 30 31 32 32 32 32 32 31 31 31 31 31 32 33 35 36 37 38 39 39 40 41
28 28 27 26 26 26 28 28 28 28 29 30 30 30 29 28 28 28 28 29 29 29 29 28 27 27 28 28 29 29 28 28 28 28 28 29 29 30 29 28 26 25 26 26 27 27 27 27 27 27 27 27 27 28 28 28 28 28 28 28 28 28 29 30 32 32 33 32 32 32 31 31 31 31 31 32 33 35 36 37 38 38 39 40 41
30 31 30 29 29 29 29 30 29 29 30 30 31 31 31 30 30 29 29 30 30 30 30 29 28 28 28 29 29 28 28 28 28 28 28 29 30 30 29 28 27 27 27 27 28 28 28 28 28 27 28 28 28 28 28 28 28 28 28 28 28 28 30 31 32 33 33 32 32 32 31 31 30 31 31 32 33 34 36 37 38 38 39 40 41
35 34 32 31 31 31 30 29 29 30 30 30 30 31 31 32 32 31 30 30 31 31 31 30 29 29 30 30 29 28 27 28 29 29 29 29 30 30 30 29 28 28 28 29 29 29 29 28 28 28 28 28 28 28 28 28 28 28 28 28 28 29 30 31 32 32 32 32 32 32 31 31 30 31 31 32 33 34 36 37 38 38 39 40 41
41 38 34 33 33 32 30 30 30 30 30 29 29 30 31 32 32 32 31 31 32 32 32 31 30 30 31 31 29 28 27 28 29 29 29 29 30 30 30 29 29 28 29 30 30 30 29 29 28 28 28 28 28 28 27 27 27 28 28 28 29 30 30 31 31 32 32 32 32 31 31 31 30 31 31 32 33 34 35 36 37 38 39 40 41
42 40 37 37 36 34 34 34 34 31 29 29 29 30 31 32 32 32 32 32 32 32 31 30 30 31 32 31 29 28 28 29 29 29 29 29 30 30 30 29 29 29 29 30 30 30 30 29 28 28 28 27 27 27 27 27 27 27 28 29 30 30 30 31 31 32 32 32 32 31 31 31 31 31 32 32 33 34 35 36 37 38 39 41 42
40 39 38 38 38 37 37 38 36 32 30 30 30 30 30 32 33 34 33 32 32 32 31 30 30 31 32 31 29 29 29 29 29 29 29 29 29 30 29 29 29 29 30 30 30 30 30 29 28 28 27 27 27 27 27 26 27 27 29 30 31 31 31 31 31 32 32 32 32 32 31 31 31 31 32 33 33 34 35 36 37 38 40 41 42
39 39 38 37 37 38 38 37 36 34 32 31 30 30 31 32 33 34 33 32 32 32 31 30 31 31 32 31 30 29 28 28 29 29 29 29 29 29 29 29 29 30 30 31 31 31 30 29 28 28 28 28 28 28 27 27 27 28 29 31 31 31 31 31 32 32 33 33 33 32 32 32 32 32 33 33 34 34 35 36 37 39 40 41 42
38 38 38 37 37 38 38 37 36 36 34 32 30 30 32 32 33 33 32 31 31 31 30 31 31 32 32 31 29 28 27 28 29 30 30 29 29 29 29 29 29 30 31 31 31 30 30 30 29 28 28 29 29 28 28 28 28 29 31 32 32 31 31 32 32 33 34 34 33 33 33 33 33 33 33 34 34 35 36 37 38 39 41 42 43
37 37 37 37 37 37 35 35 35 35 33 32 30 30 30 31 32 32 32 31 31 30 30 31 32 32 31 31 29 27 26 27 29 29 30 29 29 29 29 30 30 31 31 31 30 30 29 29 29 29 29 29 29 29 29 28 29 30 32 32 32 32 32 32 32 33 34 34 34 34 34 34 34 34 34 35 35 36 37 38 39 40 41 42 43
38 36 36 36 35 33 31 33 36 37 35 34 32 31 30 30 31 31 31 31 31 31 31 31 32 32 32 31 29 27 27 28 28 29 29 30 30 30 30 31 31 31 31 30 29 29 29 29 29 29 30 30 30 30 29 29 30 31 32 33 33 32 32 32 33 33 34 34 34 34 34 34 34 35 35 36 36 37 38 39 40 41 41 42 43
38 37 35 34 33 31 31 34 39 41 40 38 36 34 33 33 32 32 32 32 32 32 31 32 32 32 31 31 30 29 28 28 28 29 30 30 31 31 31 32 32 32 31 30 28 28 29 29 30 30 30 30 30 30 30 30 31 32 33 33 33 33 33 33 33 33 33 34 34 34 34 35 35 36 36 37 37 38 38 39 40 41 42 43 44
38 39 37 34 33 32 32 35 38 40 39 37 37 36 35 34 33 33 33 32 32 32 32 32 32 32 31 32 32 31 30 29 29 30 31 31 31 32 32 32 32 32 31 29 27 28 29 30 31 31 30 31 31 31 31 32 32 33 33 34 34 33 33 33 33 33 33 33 34 34 35 35 36 37 37 38 38 38 39 40 40 41 42 43 44
38 38 38 36 34 33 33 35 36 35 34 34 35 35 33 32 31 32 31 31 31 32 32 32 32 32 32 32 32 31 31 31 31 31 31 32 32 33 33 32 32 32 31 29 28 28 30 31 31 31 31 31 31 32 33 33 33 34 34 34 34 34 33 33 33 33 33 34 34 35 36 37 37 38 38 38 39 39 40 40 41 41 42 44 45
37 38 38 37 35 34 34 35 35 33 33 33 35 36 36 35 34 33 33 33 33 33 33 33 32 32 32 32 32 32 32 32 31 30 31 32 33 33 33 32 32 31 31 31 30 30 30 31 32 32 32 32 32 34 35 34 34 34 34 35 34 34 34 34 34 34 34 34 35 36 37 38 38 39 39 39 40 40 41 41 42 42 43 45 46
36 37 37 38 37 35 35 35 34 33 33 33 34 38 41 42 39 36 35 35 35 34 34 33 33 33 33 33 32 32 32 31 31 31 32 34 34 34 33 32 32 32 32 33 32 32 31 31 32 33 34 34 35 36 36 36 35 35 35 35 35 35 34 34 34 35 34 34 35 37 38 39 40 40 40 41 41 42 42 42 43 43 44 46 47
35 35 36 36 36 36 36 36 35 34 34 35 37 41 45 45 42 39 37 36 35 35 35 35 35 34 33 33 33 32 31 31 32 32 31 32 32 32 32 32 32 32 32 33 33 32 32 33 33 34 35 36 37 38 38 38 37 37 36 36 35 35 35 35 35 35 35 35 36 38 39 40 41 41 42 42 43 43 43 44 44 45 46 47 49
Wind_Direction
304 304 304 305 304 302 303 307 309 310 310 309 308 308 307 307 308 306 296 282 273 270 267 265 265 264 264 264 262 261 262 263 264 266 269 272 275 277 279 281 284 286 289 290 293 295 297 298 299 298 297 294 288 280 272 267 265 263 259 255 253 252 247 243 246 252 254 254 256 257 257 259 261 262 263 266 269 270 271 273 275 277 278 278 274
299 299 300 302 303 301 301 304 309 311 313 313 314 316 316 314 315 316 311 297 281 273 269 267 265 263 262 262 262 263 264 266 268 270 273 276 278 280 283 285 288 290 292 294 296 297 297 297 296 296 295 293 289 281 272 266 264 264 263 261 259 258 254 247 243 246 249 251 253 255 256 257 259 261 261 264 267 268 269 271 273 275 274 275 276
297 297 298 300 302 301 299 300 304 308 310 313 317 322 324 323 321 319 318 311 298 284 275 271 268 265 262 261 262 263 265 267 270 273 276 280 283 286 288 290 291 293 294 296 299 299 298 297 297 296 294 292 289 283 275 267 264 265 267 269 269 268 265 259 254 251 251 252 254 256 257 258 259 261 261 263 265 267 269 270 271 273 274 273 273
294 296 297 299 300 300 298 298 300 303 306 311 317 323 327 329 327 325 324 322 314 301 287 277 271 268 265 263 263 265 267 270 273 278 283 288 292 294 294 295 296 297 298 302 305 307 306 306 305 305 304 300 295 290 283 276 271 270 272 274 275 274 273 270 266 263 260 260 260 261 262 262 262 263 264 265 266 267 268 270 271 271 272 272 273
290 292 294 296 297 298 297 297 297 298 302 307 313 319 324 328 329 331 332 331 325 318 307 293 282 275 271 269 269 270 273 277 283 289 295 299 300 301 302 302 302 303 306 313 321 332 341 349 352 352 351 347 339 329 317 307 298 289 285 282 280 278 276 275 273 272 271 270 269 269 269 269 269 268 268 268 269 268 267 268 270 271 270 271 271
285 287 290 291 292 294 296 296 295 294 296 300 305 311 316 321 325 330 335 336 336 337 333 326 312 297 289 283 280 281 283 287 291 295 299 302 305 308 311 312 314 318 327 344 15 39 48 50 49 46 44 42 40 39 37 34 30 22 6 345 325 309 298 292 288 285 282 280 278 277 276 277 276 275 273 272 271 271 270 268 268 269 270 270 270
281 284 286 287 288 290 292 293 294 293 294 295 298 302 305 311 317 323 328 330 335 344 350 351 349 341 330 319 309 302 297 295 295 297 301 304 307 312 318 326 338 355 22 49 64 69 67 64 60 55 51 48 45 43 41 39 36 33 29 23 15 6 357 348 340 331 321 311 302 295 289 287 286 283 280 277 274 273 273 271 269 268 267 268 269
277 279 282 284 286 286 287 289 290 290 292 292 294 297 298 301 305 311 318 320 324 333 343 353 359 1 2 3 359 350 330 316 313 312 315 315 317 329 345 4 28 54 71 79 80 76 70 63 56 51 46 41 37 33 29 26 23 20 16 11 5 360 353 348 344 339 335 329 323 317 311 305 301 298 295 288 282 278 277 276 274 272 269 267 266
274 275 277 281 284 284 283 283 284 285 287 289 291 294 296 297 298 300 305 309 313 318 321 328 337 349 5 18 31 49 62 63 62 59 49 50 58 59 65 74 78 84 87 87 80 68 59 53 46 40 33 27 23 19 15 12 9 6 3 1 358 354 350 345 340 335 330 325 321 316 312 310 306 304 303 301 295 290 285 281 279 278 276 273 270
274 274 276 278 281 282 280 279 280 281 281 284 288 293 294 295 294 294 295 298 302 305 305 306 308 312 325 343 1 48 77 83 85 87 88 91 87 87 94 95 96 99 98 89 74 58 47 37 26 17 10 6 3 2 360 357 355 352 351 351 350 349 345 341 337 332 327 323 319 314 309 307 305 301 300 299 298 296 293 289 285 282 281 279 278
277 275 276 277 278 279 278 277 277 277 277 280 284 289 292 292 291 291 291 291 293 295 297 296 292 289 294 295 286 170 102 91 83 81 81 81 81 88 96 100 109 116 111 93 67 46 24 6 357 351 348 347 347 347 346 345 343 343 342 342 342 341 339 336 332 328 325 322 319 316 312 309 306 302 299 297 295 293 292 290 287 284 282 281 282
281 278 276 276 275 276 276 276 275 274 273 275 279 284 289 290 289 288 287 287 286 287 290 290 284 277 274 266 236 143 103 91 83 80 81 84 91 104 113 128 138 138 123 75 33 6 349 342 338 336 336 335 335 335 335 336 335 335 335 335 334 333 331 329 327 325 324 323 322 320 318 315 311 307 304 301 297 294 291 289 286 284 282 280 280
283 279 276 275 274 275 275 276 275 273 271 271 275 281 285 287 286 285 282 281 281 281 282 282 278 267 249 220 177 135 112 105 101 100 107 119 131 146 164 166 167 174 231 311 323 327 328 329 327 325 324 323 324 325 327 328 329 330 330 329 327 325 324 323 322 321 320 321 322 322 320 317 314 310 307 305 302 300 297 294 291 287 284 281 278
283 279 277 275 275 275 275 275 274 272 269 269 273 279 283 285 285 282 278 276 275 276 276 277 275 259 222 187 161 144 132 125 118 116 129 150 162 179 194 199 211 243 282 299 309 316 319 319 317 316 316 317 319 322 324 325 327 326 325 323 321 320 320 319 318 317 317 317 318 319 318 317 316 314 311 308 306 304 302 300 298 295 292 289 286
284 280 277 276 274 273 273 273 273 271 268 268 272 277 280 282 281 277 273 271 271 272 271 270 265 245 209 182 164 153 144 134 123 105 107 166 206 223 230 238 255 276 292 302 308 311 312 311 310 311 314 317 319 321 322 323 323 322 321 321 321 320 321 321 320 319 319 320 319 319 319 318 318 317 315 312 310 307 304 302 300 297 296 294 291
287 284 281 278 274 271 271 272 272 270 267 267 270 274 276 276 274 270 267 265 265 264 263 261 252 228 203 189 175 165 160 159 137 6 332 306 288 279 277 280 287 294 300 305 307 308 308 308 309 312 315 317 319 320 320 319 317 318 321 324 325 325 323 322 322 321 322 322 321 321 321 321 320 318 317 314 312 310 308 306 304 301 298 296 293
288 287 284 280 275 272 272 272 271 269 267 266 268 271 271 269 268 265 262 259 259 258 256 251 237 216 202 196 190 189 200 228 272 297 309 313 312 307 304 302 302 304 305 305 306 307 308 310 312 315 316 317 316 316 315 314 314 317 323 328 330 328 326 324 323 324 324 324 324 324 324 323 322 320 319 317 316 315 314 312 311 310 308 305 301
287 286 284 282 278 274 272 271 270 267 265 264 264 265 265 264 262 260 257 255 254 253 249 240 225 210 203 202 206 218 231 245 269 286 304 317 318 314 310 307 306 306 305 306 308 311 314 316 317 317 316 315 314 313 312 312 312 317 324 331 333 332 330 327 326 326 326 326 327 326 326 326 326 325 325 323 321 319 318 316 315 313 312 310 307
282 282 282 279 277 274 271 269 268 266 264 261 260 260 260 260 259 256 253 250 248 247 242 229 215 207 205 211 221 232 241 251 265 281 299 306 305 303 301 301 302 304 307 310 314 317 318 319 319 317 316 314 313 312 312 312 313 316 323 330 335 335 333 329 328 328 329 330 330 329 330 331 331 331 330 329 327 324 322 320 318 316 315 313 311
277 276 276 276 275 272 269 268 267 266 264 261 259 259 259 258 256 251 248 245 243 241 233 219 208 205 209 217 227 237 247 257 269 281 289 291 291 293 295 298 302 305 309 312 314 316 317 318 318 317 316 315 313 311 311 312 313 314 318 326 332 334 333 331 330 330 330 331 331 330 331 333 334 335 335 334 332 329 327 324 322 320 318 317 315
271 269 268 271 273 271 269 269 267 267 264 261 260 260 257 253 249 245 242 241 237 232 223 213 206 205 211 219 228 238 249 259 268 275 278 280 283 288 294 299 302 303 306 308 311 313 314 315 316 317 316 315 313 311 310 311 312 312 314 320 327 331 332 331 330 328 328 328 328 328 330 332 334 336 337 337 336 333 331 328 326 324 322 322 321
265 264 263 265 269 271 271 270 267 266 264 262 262 261 255 247 241 237 236 236 231 223 215 211 208 209 215 223 230 239 248 255 262 266 270 274 280 287 292 296 299 301 303 305 308 310 313 314 315 316 316 315 313 311 310 310 311 311 311 315 321 326 329 329 328 326 325 324 324 326 329 331 333 335 337 337 337 335 334 332 330 328 326 325 325
263 261 259 258 262 267 270 270 268 265 261 260 258 256 252 245 238 234 231 228 223 217 213 213 215 217 223 228 233 240 247 252 258 263 269 275 281 287 292 295 297 299 301 303 306 309 311 313 314 314 314 314 312 311 310 310 310 310 309 310 315 320 324 326 326 324 323 322 322 324 327 329 331 333 335 336 336 335 335 334 332 331 329 328 327
261 258 256 254 255 259 264 267 266 263 259 255 253 252 250 245 238 233 229 222 217 215 215 217 221 224 229 234 239 244 249 253 259 265 271 278 284 288 292 294 296 298 300 302 305 308 310 311 312 312 312 312 312 311 310 310 309 308 307 308 311 315 319 322 324 323 322 321 321 321 324 327 329 331 332 334 334 334 334 334 333 331 330 329 329
257 256 254 251 250 252 256 260 261 260 256 251 249 248 246 243 238 232 227 220 217 216 218 221 226 230 234 239 245 250 254 259 265 270 276 282 287 290 292 294 295 297 299 301 304 306 308 309 309 309 309 309 310 310 309 309 308 308 308 307 308 311 316 319 322 323 322 320 319 320 322 324 326 328 330 331 332 333 333 333 333 332 332 331 330
254 253 252 250 247 246 250 253 254 255 254 251 249 248 245 242 237 232 227 222 219 221 223 227 231 236 241 247 252 256 261 266 271 277 282 286 289 291 293 294 295 297 298 301 303 305 306 307 307 307 308 307 307 307 307 308 308 307 307 306 306 309 313 316 319 321 321 320 319 319 320 321 324 326 328 329 331 332 333 334 334 334 333 332 332
253 251 250 250 247 245 246 248 249 250 250 250 249 248 247 246 242 237 232 228 226 227 230 234 239 244 248 253 258 263 267 272 277 281 284 287 290 291 293 294 295 297 298 301 302 303 305 305 305 305 305 305 305 305 306 306 306 305 306 305 305 307 310 313 316 318 320 320 318 317 317 319 322 324 326 328 331 333 334 335 335 335 334 334 333
256 252 251 250 249 246 244 245 246 246 246 247 247 247 248 248 247 245 240 237 236 237 240 243 247 250 254 258 263 267 271 275 279 282 285 287 289 291 292 294 295 297 299 300 301 302 303 303 303 303 303 303 304 304 305 304 304 305 305 305 304 305 307 311 314 315 317 318 318 317 317 319 321 324 327 329 331 334 335 336 337 337 336 336 335
262 257 252 249 248 247 244 244 245 245 243 244 245 247 247 248 248 248 247 245 245 246 248 250 252 255 259 262 266 270 274 277 280 282 284 286 288 290 292 294 296 297 298 299 299 300 300 300 300 301 301 301 303 304 304 304 304 304 304 303 303 304 306 310 312 314 315 317 318 318 319 320 322 325 327 329 331 334 336 337 338 339 338 338 337
268 264 258 253 250 248 246 245 246 246 245 244 244 246 247 247 248 249 250 249 250 251 253 255 257 259 262 265 268 272 274 277 279 281 283 285 287 289 291 293 294 295 296 297 298 298 298 298 298 299 299 300 302 303 304 304 303 303 303 303 303 304 306 309 312 313 314 316 318 319 319 321 323 325 327 329 331 333 336 337 339 340 340 340 339
270 267 264 259 255 251 248 246 246 247 246 245 245 246 246 246 247 249 251 252 253 254 256 258 260 263 265 267 270 272 274 276 278 280 282 284 286 288 290 291 292 292 294 296 297 298 297 297 297 297 298 299 301 302 303 303 304 304 304 304 305 305 306 309 311 313 313 314 316 318 320 321 323 325 326 328 330 331 334 335 336 338 339 340 340
271 268 267 264 261 257 253 249 247 247 247 246 245 246 247 247 247 247 249 251 253 255 257 259 261 264 266 268 270 272 274 276 278 280 282 284 285 286 287 287 288 290 293 295 297 298 297 297 296 297 298 299 301 302 303 304 305 306 306 306 306 306 306 308 310 312 313 313 315 317 319 320 322 324 326 327 328 329 331 332 334 335 336 338 339
272 271 268 265 263 262 260 256 252 249 248 247 247 247 247 248 248 247 248 249 252 254 256 258 261 264 266 268 270 272 274 276 278 280 282 283 284 284 284 284 285 289 293 296 298 299 298 298 298 298 299 300 301 303 304 305 306 307 307 307 307 306 306 307 310 312 313 312 313 315 317 319 321 324 326 327 327 328 329 330 332 333 335 336 338
272 272 270 267 265 264 263 262 259 256 253 251 249 248 248 249 250 250 250 250 251 253 256 258 261 264 266 269 270 272 274 276 278 279 281 282 282 282 282 283 285 289 293 297 299 300 300 299 298 298 299 300 302 303 305 306 306 307 306 307 307 306 306 307 309 312 312 312 312 313 315 318 320 323 325 327 328 329 329 330 331 333 334 335 336
271 272 272 270 268 265 263 261 261 261 260 257 255 252 250 250 252 254 254 253 253 254 255 257 260 263 265 268 270 272 274 276 277 279 279 280 280 281 282 284 286 290 295 298 301 302 301 299 298 298 299 301 303 304 305 306 306 306 306 307 307 306 306 307 309 311 312 311 311 312 314 316 319 322 325 327 328 329 330 331 332 333 334 335 336
270 271 272 271 270 268 264 262 261 261 261 261 261 259 257 255 254 255 256 256 255 256 256 257 259 262 264 266 268 271 273 275 276 277 278 279 280 281 283 285 287 291 295 299 302 304 303 301 299 299 300 302 303 304 305 306 306 306 306 306 306 306 306 307 309 310 311 311 311 312 313 315 318 321 323 326 328 330 331 332 333 333 334 335 336
268 268 269 270 269 267 265 264 263 262 261 262 263 264 263 262 260 258 258 259 260 260 260 260 260 261 263 265 267 270 273 275 276 277 278 279 280 282 283 285 287 290 294 298 302 305 305 303 301 300 301 302 303 305 305 306 306 306 306 306 306 306 305 307 309 311 311 311 311 311 312 314 316 319 322 324 327 329 331 332 333 334 335 336 336
269 266 265 266 267 267 266 266 266 265 264 263 264 265 265 265 264 263 263 262 262 263 263 262 262 262 263 265 268 270 272 274 275 277 279 280 281 282 283 284 286 289 293 297 301 304 305 303 301 301 301 302 303 304 305 305 306 306 306 306 306 305 305 307 310 311 312 311 311 310 312 313 315 318 320 322 325 327 330 332 333 334 335 336 337
261 261 261 263 264 266 269 270 268 267 266 266 265 265 265 266 266 266 265 264 264 264 264 264 264 264 264 265 268 271 272 273 275 277 279 280 280 281 282 284 286 289 292 296 300 303 303 302 300 300 300 301 302 303 304 305 306 307 307 307 305 305 306 308 311 313 313 312 311 311 311 313 315 316 318 320 323 325 328 331 333 334 335 336 337
255 259 260 260 262 265 268 268 267 266 266 267 266 265 265 266 266 266 265 264 264 265 265 265 265 264 264 266 269 271 272 273 275 277 279 279 280 281 282 284 286 289 292 295 299 301 302 300 299 298 298 299 301 302 303 304 306 307 308 308 306 305 306 309 311 313 313 312 311 311 312 313 314 315 316 318 321 323 327 329 332 333 335 336 337
256 259 260 260 262 263 263 264 265 265 264 265 267 268 267 265 265 265 265 265 265 265 265 265 265 265 265 267 269 271 272 274 277 278 279 279 279 281 283 285 287 289 291 294 298 300 300 299 297 296 297 298 300 301 302 304 306 308 310 309 307 305 305 307 310 313 313 313 312 312 312 314 314 315 316 317 319 321 325 327 330 331 333 334 336
258 260 261 260 259 258 259 262 264 264 262 262 265 268 267 265 264 265 266 266 267 267 267 267 266 266 267 268 270 272 274 277 278 279 279 280 281 282 284 286 288 289 291 294 297 298 298 297 296 295 296 297 299 300 301 303 306 309 311 311 309 306 305 306 308 311 313 313 313 312 313 314 314 314 315 316 317 319 322 325 327 329 331 333 334
260 260 261 260 258 257 258 259 260 261 262 263 262 263 264 265 265 265 266 266 267 268 268 267 267 268 269 270 273 276 278 280 280 280 281 282 283 284 285 287 288 289 290 292 294 295 294 293 294 294 295 296 297 299 299 302 306 309 310 311 310 308 306 305 307 309 311 313 313 314 314 314 314 314 314 315 316 318 320 323 325 327 329 331 332
261 260 260 260 260 260 260 260 260 261 261 261 259 259 262 266 266 266 266 266 267 268 268 268 269 270 271 273 275 278 280 280 280 280 282 283 283 285 286 287 287 288 288 290 291 291 290 291 292 293 293 294 296 297 298 301 305 307 309 309 310 309 308 307 307 309 311 313 314 315 314 313 313 314 314 315 315 316 318 321 323 325 327 329 331
263 261 259 259 260 259 258 259 261 261 259 258 258 259 263 267 268 267 267 267 267 268 269 270 271 272 273 275 277 278 278 278 278 280 281 282 283 284 285 286 286 286 287 288 288 288 288 289 290 290 291 293 295 296 298 301 304 306 307 308 308 309 309 308 308 309 311 313 314 315 315 314 314 314 315 315 315 316 317 319 321 323 326 328 330
264 263 261 259 258 255 249 248 252 255 257 257 258 259 262 266 268 268 268 268 268 269 271 272 273 274 275 276 277 277 277 277 278 279 281 282 284 285 285 285 285 286 286 286 286 287 287 289 289 289 290 292 295 297 299 301 303 305 305 306 306 307 309 309 309 309 311 313 314 315 316 316 316 316 316 316 316 316 317 318 320 322 325 327 330
265 265 263 260 258 255 250 247 249 253 256 258 259 260 262 264 266 266 266 266 267 269 271 273 274 274 274 275 276 277 277 278 279 279 281 282 284 284 283 282 283 285 286 286 286 286 287 288 289 289 290 292 294 296 298 300 302 303 304 304 304 306 308 309 309 310 311 313 314 316 316 317 317 317 317 317 316 316 316 318 320 322 324 327 329
265 265 265 262 259 257 255 253 253 254 255 257 258 259 260 261 263 264 264 264 266 269 272 273 274 274 274 274 274 275 277 277 279 280 282 283 283 283 283 284 285 287 288 288 287 286 287 288 289 288 289 292 293 295 297 300 301 302 302 302 302 304 306 308 309 310 311 313 314 315 316 317 317 317 317 316 316 316 317 318 320 322 325 327 329
264 265 265 263 261 258 256 256 255 253 252 253 257 261 263 263 262 261 262 264 267 270 272 273 273 273 273 273 274 275 276 277 279 280 282 283 283 284 285 285 286 287 287 288 288 289 290 291 291 290 290 291 292 294 296 299 301 301 301 301 301 302 305 307 308 309 311 312 314 315 315 316 316 316 316 316 315 316 317 319 320 323 325 327 328
265 265 265 264 262 258 256 255 254 251 247 247 252 257 260 260 260 260 262 265 267 269 270 272 273 274 274 274 274 275 276 277 279 280 281 282 282 281 281 283 284 286 288 290 292 295 296 298 297 296 294 292 292 293 295 298 300 300 300 300 300 301 303 305 307 308 310 312 314 315 315 315 314 315 315 315 315 316 317 319 321 323 325 327 327
267 267 267 267 264 261 257 256 255 250 244 241 242 246 249 252 255 258 261 263 265 266 269 271 272 273 273 274 274 276 277 278 279 280 279 279 278 278 278 280 282 284 287 291 294 299 302 303 303 301 298 294 293 293 294 296 298 300 299 298 299 300 301 304 305 307 309 312 314 314 313 313 313 314 314 314 315 316 317 319 322 324 326 327 327